Temp
18 16 15 16 16 18 18 17 17 17 19 20 20 18 17 16 16 15 11 9 9 8 8 8 7 7 7 7 7 6 6 5 5 5 4 3 2 1 0 -0 -0 -1 -1 -1
16 15 17 17 17 17 17 17 17 18 19 20 18 17 16 15 15 16 13 10 9 7 7 7 6 7 7 6 6 5 5 5 4 4 3 2 1 0 -0 -1 -1 -1 -2 -2
15 17 18 18 18 17 17 16 17 18 18 18 17 16 18 19 17 16 14 11 9 7 7 6 5 6 6 5 5 5 4 4 4 3 3 2 1 1 -0 -1 -1 -2 -2 -2
15 17 17 17 17 18 17 19 18 18 16 16 17 14 15 17 14 12 11 9 8 8 7 6 5 5 5 5 4 4 3 3 3 3 3 1 -0 -1 -2 -1 -2 -2 -2 -2
16 17 17 17 19 19 18 19 18 18 16 15 15 15 14 14 15 11 9 9 7 6 6 5 5 5 5 4 4 3 3 2 2 2 1 1 -0 -1 -1 -1 -2 -2 -3 -3
15 17 17 17 19 19 19 18 15 14 14 13 14 14 13 13 13 11 10 9 8 7 6 6 5 4 4 4 3 3 3 1 1 1 0 0 -0 -1 -1 -2 -2 -3 -3 -3
16 16 17 17 17 18 18 15 12 12 12 13 16 15 14 13 12 11 9 8 8 7 6 5 5 4 3 3 3 2 2 0 1 0 -0 -0 -1 -1 -2 -3 -3 -4 -4 -4
14 15 18 18 17 16 15 16 13 15 14 14 15 14 12 11 11 10 9 9 9 8 7 6 5 3 2 2 2 2 1 0 0 -0 -1 -1 -2 -2 -3 -3 -3 -4 -5 -5
14 15 18 17 18 18 17 16 17 15 13 12 12 12 12 11 10 9 9 9 7 7 6 5 4 2 1 2 2 2 1 0 -0 -1 -1 -2 -2 -2 -3 -3 -3 -4 -4 -5
15 14 16 17 18 18 18 18 15 13 14 12 12 13 10 11 10 9 7 7 7 5 4 3 2 1 1 1 1 1 1 0 -0 -1 -1 -2 -3 -3 -3 -3 -4 -4 -4 -4
15 13 14 16 16 16 15 14 14 14 11 11 11 10 10 11 11 9 9 7 5 5 2 2 1 1 1 0 0 -0 -0 -0 -1 -1 -2 -2 -3 -3 -3 -4 -4 -5 -5 -5
14 10 10 13 15 15 16 14 13 9 13 11 7 9 11 10 12 10 9 8 5 3 1 -1 -1 -1 -1 -0 -0 -0 -1 -1 -1 -1 -1 -2 -2 -3 -4 -4 -4 -5 -5 -5
14 9 11 12 12 12 13 13 13 12 9 10 7 9 11 12 11 11 10 8 5 2 0 -1 -2 -2 -2 -1 -1 -1 -1 -1 -1 -1 -1 -2 -2 -3 -4 -4 -5 -5 -5 -5
13 10 12 10 11 11 11 12 12 12 6 9 10 11 11 12 11 11 10 9 5 3 1 -1 -3 -3 -2 -1 -1 -1 -1 -1 -1 -1 -1 -2 -2 -2 -3 -4 -5 -5 -6 -6
11 10 9 10 10 11 10 10 10 10 11 10 10 10 10 10 11 10 10 8 5 3 1 -0 -1 -3 -3 -2 -1 -1 -1 -1 -1 -1 -1 -2 -2 -3 -4 -5 -5 -6 -6 -6
10 9 8 3 9 10 9 8 8 10 10 10 11 10 11 12 11 9 9 7 6 5 3 1 -1 -2 -2 -2 -2 -1 -1 -1 -1 -1 -1 -2 -3 -3 -4 -5 -5 -6 -6 -7
10 9 8 9 10 10 9 7 10 10 10 11 10 11 11 10 10 9 9 6 6 7 4 2 -0 -1 -1 -1 -1 -1 -0 -0 -0 -1 -1 -2 -3 -3 -4 -5 -5 -6 -7 -7
9 9 8 7 10 7 9 11 11 10 11 11 11 11 11 11 10 8 8 6 5 5 4 2 0 -1 -1 -0 -0 0 -0 -0 -0 -1 -1 -2 -3 -4 -4 -5 -6 -6 -7 -7
10 8 6 8 8 10 11 12 11 10 11 11 11 10 10 9 9 9 7 5 4 3 2 1 -0 -1 -0 0 0 0 -0 -0 -1 -1 -1 -2 -3 -3 -4 -5 -6 -6 -7 -7
9 9 8 6 7 7 10 11 13 12 9 11 11 10 9 8 7 5 6 4 3 3 2 0 0 0 0 0 1 0 -0 -1 -1 -1 -1 -2 -3 -3 -4 -5 -5 -6 -7 -7
7 6 7 8 8 8 10 12 13 10 9 12 11 10 8 8 7 5 3 2 3 2 2 1 1 0 1 1 1 -0 -1 -1 -1 -1 -2 -3 -3 -3 -4 -5 -5 -6 -7 -7
8 6 8 8 8 8 10 11 10 9 10 12 11 10 8 7 4 3 2 1 2 1 1 1 1 0 1 1 1 -1 -1 -1 -1 -2 -3 -3 -4 -4 -4 -5 -5 -6 -6 -7
9 9 9 8 8 9 9 9 9 9 10 11 11 9 7 5 4 2 2 2 2 2 1 1 1 -0 -0 1 1 -1 -1 -1 -2 -3 -3 -4 -4 -4 -4 -4 -5 -6 -6 -7
9 9 7 7 9 8 9 8 9 8 9 10 10 7 6 5 4 3 2 2 1 1 1 1 0 -1 -1 -0 1 1 -0 -1 -2 -3 -3 -4 -4 -4 -4 -4 -4 -5 -6 -7
7 9 8 7 8 9 9 9 9 9 10 10 7 6 6 5 4 3 3 2 2 1 1 1 1 -0 -0 0 0 0 -0 -2 -3 -3 -3 -4 -4 -4 -5 -5 -5 -5 -6 -6
7 7 6 7 8 8 9 9 9 9 9 8 7 6 5 5 4 4 3 3 2 2 2 1 1 1 1 0 1 0 -0 -1 -2 -3 -3 -4 -4 -4 -5 -5 -6 -6 -6 -6
Height
786 797 800 795 793 788 790 795 797 788 774 775 772 776 773 771 773 778 788 794 798 802 806 807 808 810 812 813 813 814 813 813 813 813 814 815 814 813 812 810 808 806 803 799
795 801 784 782 785 789 791 794 792 783 773 773 777 779 770 769 767 765 775 786 791 799 805 808 809 810 812 814 816 816 814 814 815 814 815 816 817 815 814 813 809 807 803 800
798 785 777 781 782 788 788 791 786 785 778 775 779 781 766 759 762 765 771 780 790 797 802 807 809 810 814 816 817 818 816 815 815 815 818 819 818 817 815 813 810 808 805 801
790 778 780 781 783 780 786 774 778 781 790 798 783 802 783 769 778 783 779 782 789 796 803 806 809 811 814 816 819 819 819 817 816 818 818 819 818 818 817 816 812 811 808 803
787 779 779 783 776 772 779 772 777 779 789 794 794 800 787 780 779 789 794 797 799 801 804 808 810 811 815 816 818 818 819 819 818 818 819 820 821 820 818 816 814 811 809 806
784 774 775 776 768 768 769 776 785 792 797 806 792 795 788 785 781 789 793 795 799 803 806 809 811 813 812 813 816 819 817 818 820 820 820 820 819 821 820 818 812 812 809 807
782 776 768 765 776 771 772 790 813 810 812 806 780 786 783 781 781 781 789 796 799 802 805 807 810 811 813 812 815 819 819 819 820 821 823 822 824 821 820 817 816 814 811 809
794 792 768 764 772 777 780 780 801 795 799 797 784 790 786 784 784 786 788 790 793 797 800 803 805 811 814 813 817 817 819 819 820 822 825 825 826 823 822 819 817 816 814 813
792 786 767 767 763 767 776 783 771 784 795 807 796 791 785 786 789 790 790 790 791 790 792 799 807 808 811 812 813 817 818 819 821 822 827 827 828 825 825 821 819 820 819 816
780 792 775 771 763 765 768 770 788 794 794 800 795 785 799 788 787 790 796 792 789 793 797 801 806 810 812 813 815 817 817 819 822 824 827 827 829 828 827 824 823 822 821 817
776 789 785 774 773 777 780 785 784 789 799 800 805 795 777 771 774 781 782 784 790 791 794 798 803 805 807 812 813 816 817 819 823 825 827 828 830 830 829 826 826 825 823 820
778 795 803 783 772 775 774 780 785 814 789 795 818 794 770 768 766 773 776 779 786 790 795 797 800 804 808 808 810 813 816 819 823 825 826 829 830 831 830 829 829 827 824 821
778 799 797 788 788 781 781 783 785 788 804 796 827 797 767 766 769 767 770 773 779 786 791 794 798 802 806 808 810 812 814 818 822 824 827 829 830 831 832 832 831 829 826 824
776 789 786 800 789 791 792 785 785 789 823 806 785 779 772 767 767 765 765 765 774 778 783 790 796 800 802 806 809 812 815 817 820 824 827 829 830 832 833 833 833 831 828 826
783 790 792 788 787 787 789 788 788 793 785 792 770 775 772 767 762 761 758 759 768 773 780 785 792 797 800 805 807 812 815 817 819 823 826 828 831 833 834 834 834 832 830 829
785 789 795 825 792 787 790 792 790 780 775 772 768 764 758 750 751 754 752 755 759 764 774 782 788 793 797 801 804 809 813 815 818 822 825 828 832 834 835 835 835 834 833 831
784 788 795 787 783 783 781 784 770 763 762 761 765 752 747 750 746 744 743 750 753 759 768 775 781 786 793 797 801 805 809 814 817 822 825 829 832 834 836 836 836 835 834 834
782 786 792 799 784 804 769 758 757 759 753 750 747 742 739 741 741 743 741 746 753 757 764 771 777 784 789 794 799 804 809 813 817 821 825 829 832 835 836 837 838 837 837 835
771 783 799 791 788 770 758 746 748 756 749 738 739 737 738 742 743 741 741 744 749 755 761 767 773 779 786 792 797 803 809 814 818 821 825 829 832 834 836 837 838 839 839 838
766 774 781 800 792 786 755 744 740 741 754 733 732 736 741 745 756 752 744 747 750 755 760 766 773 779 785 791 796 803 808 813 817 821 824 828 831 834 837 838 839 841 841 840
782 787 782 779 782 771 748 739 740 755 752 729 731 734 742 746 746 745 748 750 753 756 761 767 773 778 784 790 796 802 807 812 816 821 825 829 831 834 836 839 840 841 841 842
774 787 778 778 777 771 748 743 748 744 732 729 730 734 738 741 746 748 751 754 756 759 764 769 774 779 785 791 796 802 807 812 817 821 825 828 831 834 837 839 840 841 842 842
766 762 761 769 763 751 747 749 743 740 737 730 729 733 736 743 747 750 754 755 758 760 765 770 774 781 787 792 796 802 807 812 817 821 824 828 832 835 837 838 840 841 842 842
754 754 764 766 748 750 743 741 738 735 734 729 728 732 736 739 746 750 754 757 759 763 767 771 777 783 788 793 797 801 806 811 815 820 824 828 831 834 836 838 839 840 840 841
759 755 755 756 746 742 736 733 733 731 730 728 729 732 734 738 744 747 752 756 760 764 769 773 777 783 787 792 797 801 805 810 814 818 823 827 830 833 835 837 839 840 840 841
753 751 760 751 738 740 735 726 728 728 727 728 729 733 736 738 742 747 752 756 760 765 769 774 778 782 787 791 796 800 804 808 812 817 820 824 828 831 833 835 836 838 839 840
Wind_Speed
2 2 8 8 6 4 4 3 7 5 4 3 3 5 8 7 5 8 8 9 10 10 10 21 24 24 21 17 15 14 13 12 10 9 8 11 16 17 18 16 18 20 23 23
3 6 13 4 4 6 7 8 6 5 2 2 5 9 11 6 8 13 13 15 16 10 11 14 22 21 18 17 15 14 15 13 12 12 11 8 8 14 16 16 18 20 22 22
6 6 3 4 6 6 6 7 5 6 3 1 4 6 4 2 2 5 6 11 12 16 14 10 15 21 19 17 15 14 14 14 14 12 10 8 8 11 15 17 18 19 21 21
6 7 6 8 6 8 4 4 3 2 2 3 4 6 5 4 5 9 6 11 14 14 11 10 15 19 19 18 15 14 13 14 13 11 12 12 13 10 11 12 13 16 19 21
6 3 3 4 3 3 4 2 2 1 2 2 3 3 4 4 5 7 6 7 6 8 11 9 12 20 21 19 17 15 14 14 13 12 12 12 13 11 10 11 13 13 17 19
8 3 3 6 4 3 2 3 5 4 2 2 8 7 4 2 3 3 6 9 12 11 9 10 13 18 23 20 16 14 13 14 12 11 11 12 12 10 11 13 15 16 17 18
4 3 5 6 3 2 4 5 3 3 2 5 2 2 7 3 6 8 12 8 9 10 10 10 12 14 18 20 17 14 13 14 12 12 12 14 14 15 14 14 15 16 19 20
1 6 1 2 5 6 6 8 5 4 3 4 4 5 5 1 4 8 11 13 12 12 12 12 15 15 17 21 17 15 13 14 12 11 13 12 13 16 16 15 15 15 16 18
2 4 3 4 1 3 1 3 5 1 4 1 4 3 2 3 2 6 10 11 13 14 14 11 14 19 21 21 19 15 15 13 11 12 11 12 12 15 16 16 16 15 15 15
4 3 3 4 2 3 1 0 2 1 3 5 5 5 4 7 10 8 8 12 10 7 8 8 12 17 18 18 18 15 13 12 12 12 11 11 10 12 15 16 15 14 14 17
1 4 4 1 2 2 3 2 2 1 3 4 4 6 6 13 14 16 16 13 7 10 11 10 14 20 21 19 18 16 16 16 15 13 12 11 10 9 12 16 14 13 13 16
2 4 3 6 3 3 2 3 3 4 3 3 3 8 3 8 12 9 12 8 8 6 7 7 16 21 22 21 19 18 18 17 15 14 12 11 10 9 9 13 13 11 14 15
4 2 2 4 4 4 5 2 2 1 2 4 3 6 4 4 5 7 9 8 9 11 11 10 13 15 19 20 19 18 17 16 15 14 13 10 8 10 8 8 11 11 12 15
1 4 6 6 5 3 4 4 1 4 2 4 12 11 7 7 8 8 8 7 12 14 14 11 8 13 21 23 22 20 18 16 17 14 13 13 10 11 8 6 7 11 12 15
3 5 5 5 6 5 7 9 8 8 12 10 16 14 6 10 11 12 13 7 11 14 14 13 12 13 19 22 21 19 20 18 17 14 14 14 13 12 9 8 8 10 11 13
2 4 3 4 5 8 9 8 13 15 16 15 17 21 14 17 12 9 11 8 11 12 14 13 12 17 18 20 22 21 21 21 18 16 15 16 16 12 10 9 10 11 14 16
3 3 2 4 1 6 9 9 14 6 6 7 10 13 9 7 10 10 9 7 9 12 13 15 14 19 20 21 23 22 24 20 19 18 17 19 16 13 11 12 12 12 14 15
5 4 3 2 3 5 7 4 6 8 11 10 13 12 13 7 2 5 3 8 8 11 13 12 17 19 21 24 23 24 22 21 20 19 20 20 17 14 13 12 12 13 14 15
13 5 1 3 5 11 12 11 4 7 9 11 12 10 4 3 1 3 2 5 8 10 11 16 20 23 24 26 26 25 23 23 21 22 22 21 18 16 14 14 12 11 12 13
5 4 6 3 3 5 5 4 2 1 7 7 5 6 5 4 1 4 4 5 7 14 17 20 22 23 25 25 26 25 25 23 24 24 22 20 17 15 14 13 12 11 9 10
2 1 9 9 6 7 8 13 2 3 7 2 3 4 6 5 4 2 6 4 10 15 20 23 23 23 25 26 26 26 27 27 26 22 20 18 16 15 13 13 13 12 10 10
6 5 4 4 6 7 7 3 5 5 3 2 2 3 6 3 4 4 5 7 9 14 18 22 21 22 26 28 30 28 27 26 22 20 18 17 16 16 15 13 12 13 11 10
4 5 1 2 3 8 11 8 8 4 5 4 2 4 7 6 5 6 5 7 9 15 17 20 22 22 25 29 29 27 25 22 20 19 19 18 16 14 13 13 11 12 15 11
3 4 4 2 6 12 11 12 11 6 7 6 3 5 7 7 8 6 7 7 7 14 16 19 21 20 20 26 27 25 24 22 21 20 19 17 16 14 11 12 11 12 15 12
4 2 3 5 9 9 9 8 10 11 7 3 4 5 7 9 8 9 7 8 11 14 16 20 20 20 22 25 25 21 22 22 22 20 19 18 16 15 12 10 10 11 9 6
5 7 4 6 7 4 6 11 7 8 9 7 6 6 5 6 9 8 8 13 15 15 18 18 20 22 23 25 24 22 22 23 23 21 20 20 19 17 16 13 11 9 7 6
Wind_Direction
328 111 227 213 211 250 279 245 242 259 281 315 237 284 287 211 180 180 151 146 148 148 142 135 131 129 122 111 103 94 90 84 99 110 89 66 65 61 54 52 46 37 29 25
9 230 244 204 209 224 253 255 250 274 253 261 297 269 261 188 219 205 173 171 163 142 142 132 132 131 122 115 107 100 90 83 81 87 89 95 87 67 59 51 46 38 29 28
203 245 293 225 265 269 240 217 216 223 316 272 322 296 257 181 262 352 171 164 151 150 147 139 128 129 128 122 116 105 92 90 86 88 98 95 80 58 46 42 42 39 31 30
239 257 234 267 227 213 236 220 169 200 78 249 31 291 272 298 42 14 31 151 148 147 139 136 136 135 136 127 124 107 98 88 84 81 81 77 71 61 42 41 42 42 30 31
245 305 59 354 237 168 226 109 142 182 193 123 281 241 257 8 353 15 56 96 105 109 127 138 144 135 142 137 128 114 99 84 80 81 78 73 63 57 52 46 43 41 30 30
230 247 224 212 225 164 152 99 43 46 115 297 216 168 270 218 238 149 132 137 138 140 148 139 139 139 142 138 131 122 106 92 82 76 74 69 65 54 52 45 46 41 36 31
308 237 256 175 250 270 140 84 340 336 360 241 208 240 254 303 288 176 155 143 146 151 149 150 152 144 147 140 136 128 111 95 87 82 74 73 72 66 60 53 48 46 40 33
250 326 252 133 183 218 205 168 165 225 201 254 312 254 257 57 92 132 154 161 163 169 169 167 165 155 143 144 148 139 123 114 104 93 93 86 75 65 63 62 59 55 49 42
229 265 337 59 71 159 248 163 200 95 354 20 232 291 340 123 167 178 185 187 191 184 178 166 150 156 154 149 145 147 137 122 116 114 119 94 78 70 64 67 64 60 56 51
235 275 274 298 2 34 83 247 61 336 219 239 262 247 223 193 211 214 234 217 208 171 160 146 150 158 155 151 148 148 138 130 129 130 130 112 94 77 68 66 67 64 63 59
137 139 272 254 145 129 358 2 24 204 170 214 264 258 210 197 197 208 220 223 205 191 175 162 156 162 160 157 153 150 145 137 135 135 133 124 113 95 75 65 65 68 67 64
166 152 214 214 267 338 229 261 146 144 258 256 164 266 337 221 209 199 227 220 207 184 163 152 156 161 164 159 156 160 155 153 146 136 129 123 124 120 89 69 62 73 72 69
171 259 312 321 346 3 91 111 114 132 89 225 178 271 333 189 251 237 239 220 188 166 167 162 158 164 166 163 155 153 157 162 163 155 144 134 131 145 118 87 63 75 79 75
56 181 196 237 209 156 259 209 268 175 151 253 242 268 270 280 253 261 254 238 184 188 177 163 158 168 171 171 166 160 152 154 155 157 157 136 136 142 139 125 80 73 84 86
163 230 204 220 213 230 234 257 260 227 238 225 269 236 230 235 244 246 246 230 180 181 175 173 168 173 171 174 173 175 172 157 153 150 154 151 145 140 133 123 105 87 88 87
214 245 151 298 258 247 261 238 245 250 249 246 256 263 254 254 263 250 235 206 198 184 178 173 172 174 177 180 177 175 176 171 164 157 153 154 155 150 140 127 117 97 90 86
202 183 120 279 197 318 284 225 239 244 220 225 246 251 254 253 253 247 236 196 180 194 177 176 181 178 178 179 179 178 179 174 179 175 163 163 162 155 143 128 118 107 97 91
194 165 155 234 35 256 249 247 228 236 259 243 247 252 251 239 275 317 179 169 166 173 174 178 177 176 177 180 182 174 172 174 173 170 170 170 168 159 149 141 122 112 102 91
210 172 167 215 231 289 292 278 184 174 263 250 243 245 202 128 50 295 143 158 163 166 166 167 170 168 172 178 177 171 171 169 170 171 174 176 174 165 160 152 139 121 110 94
201 195 194 155 215 259 243 266 290 130 282 277 200 201 180 151 119 258 148 129 124 139 150 151 166 170 171 174 173 174 180 179 175 175 177 181 180 176 170 160 152 140 115 99
86 76 207 220 233 273 254 263 128 196 248 299 194 209 163 193 202 168 115 80 127 143 145 152 156 158 166 167 173 170 173 176 180 179 178 178 179 176 171 166 164 155 140 119
180 164 202 202 213 252 351 312 189 233 282 237 268 212 187 146 107 114 114 127 129 132 139 148 144 152 166 172 174 167 172 178 178 178 180 180 177 168 164 163 164 174 166 143
226 189 166 207 231 290 288 265 281 288 282 286 205 190 163 144 164 148 142 132 137 140 141 148 144 147 164 177 182 172 179 178 178 178 176 175 176 180 186 187 191 188 188 175
257 163 200 168 235 249 244 273 269 275 258 283 198 170 166 152 151 139 143 138 134 139 141 145 143 149 158 178 185 186 181 183 180 178 177 177 181 182 187 196 196 192 192 191
214 155 230 248 273 284 273 263 275 272 284 240 126 163 166 141 154 154 153 149 150 150 149 155 154 161 171 185 187 187 186 186 184 183 181 181 181 185 184 188 195 197 200 218
187 223 187 229 216 193 273 279 244 244 240 216 159 138 141 155 156 152 158 157 153 154 160 162 164 172 181 187 190 189 190 190 186 185 189 190 191 193 191 185 178 179 188 174